StationID,Date,MaxTemp,MinTemp,Precipitation,Snowfall,SnowDepth
"USC00508884","2003-06-01",73.04,41.00,0.00,0.00,
"USC00508884","2003-06-02",62.06,33.98,18.00,0.00,0.00
"USC00508884","2003-06-03",62.06,37.94,0.00,0.00,0.00
"USC00508884","2003-06-04",64.94,33.08,0.00,0.00,0.00
"USC00508884","2003-06-05",73.04,39.02,0.00,0.00,0.00
"USC00508884","2003-06-06",66.02,44.06,0.00,0.00,0.00
"USC00508884","2003-06-07",57.92,37.04,74.00,0.00,0.00
"USC00508884","2003-06-08",62.96,41.00,0.00,0.00,0.00
"USC00508884","2003-06-09",68.00,44.06,0.00,0.00,0.00
"USC00508884","2003-06-10",69.08,51.08,0.00,0.00,0.00
"USC00508884","2003-06-11",71.06,46.04,0.00,0.00,0.00
"USC00508884","2003-06-12",75.92,44.96,0.00,0.00,0.00
"USC00508884","2003-06-13",80.06,44.06,0.00,0.00,0.00
"USC00508884","2003-06-14",78.08,53.96,0.00,0.00,0.00
"USC00508884","2003-06-15",69.08,48.02,3.00,0.00,0.00
"USC00508884","2003-06-16",69.08,44.06,0.00,0.00,0.00
"USC00508884","2003-06-17",71.06,37.94,0.00,0.00,0.00
"USC00508884","2003-06-18",80.96,39.02,3.00,0.00,0.00
"USC00508884","2003-06-19",80.96,39.02,0.00,0.00,0.00
"USC00508884","2003-06-20",64.94,50.00,0.00,0.00,0.00
"USC00508884","2003-06-21",66.02,50.00,0.00,0.00,0.00
"USC00508884","2003-06-22",66.02,46.04,0.00,0.00,0.00
"USC00508884","2003-06-23",71.06,44.96,0.00,0.00,0.00
"USC00508884","2003-06-24",62.06,46.04,28.00,0.00,0.00
"USC00508884","2003-06-25",66.92,46.94,0.00,0.00,0.00
"USC00508884","2003-06-26",64.04,46.04,8.00,0.00,0.00
"USC00508884","2003-06-27",66.02,46.04,0.00,0.00,0.00
"USC00508884","2003-06-28",64.04,37.04,0.00,0.00,0.00
"USC00508884","2003-06-29",75.02,46.94,0.00,0.00,0.00
"USC00508884","2003-06-30",75.92,46.04,0.00,0.00,0.00
"USC00508884","2003-07-01",78.98,48.92,0.00,0.00,0.00
"USC00508884","2003-07-02",62.06,53.06,193.00,0.00,0.00
"USC00508884","2003-07-03",64.04,46.94,193.00,0.00,0.00
"USC00508884","2003-07-04",,,0.00,0.00,0.00
"USC00508884","2003-07-05",75.92,41.00,0.00,0.00,0.00
"USC00508884","2003-07-06",73.04,48.02,0.00,0.00,0.00
"USC00508884","2003-07-07",73.94,46.94,0.00,0.00,0.00
"USC00508884","2003-07-08",80.96,46.04,0.00,0.00,0.00
"USC00508884","2003-07-09",84.02,51.08,0.00,0.00,0.00
"USC00508884","2003-07-10",80.06,55.94,0.00,0.00,0.00
"USC00508884","2003-07-11",66.92,55.94,3.00,0.00,0.00
"USC00508884","2003-07-12",,,0.00,0.00,0.00
"USC00508884","2003-07-13",80.96,46.04,0.00,0.00,0.00
"USC00508884","2003-07-14",84.02,55.94,0.00,0.00,0.00
"USC00508884","2003-07-15",87.98,,0.00,0.00,0.00
"USC00508884","2003-07-16",77.00,57.02,0.00,0.00,0.00
"USC00508884","2003-07-17",62.06,46.94,36.00,0.00,0.00
"USC00508884","2003-07-18",60.98,41.00,0.00,0.00,0.00
"USC00508884","2003-07-19",75.92,41.00,0.00,0.00,0.00
"USC00508884","2003-07-20",84.02,44.06,0.00,0.00,0.00
"USC00508884","2003-07-21",,,5.00,,0.00
"USC00508884","2003-07-22",64.94,55.94,0.00,0.00,0.00
"USC00508884","2003-07-23",68.00,53.96,0.00,0.00,0.00
"USC00508884","2003-07-24",73.04,53.06,0.00,0.00,0.00
"USC00508884","2003-07-25",,,,0.00,0.00
"USC00508884","2003-07-26",73.04,50.00,,0.00,0.00
"USC00508884","2003-07-27",73.04,50.00,213.00,0.00,0.00
"USC00508884","2003-07-28",60.98,46.94,18.00,0.00,0.00
"USC00508884","2003-07-29",64.94,48.02,10.00,0.00,0.00
"USC00508884","2003-07-30",62.96,48.02,0.00,0.00,0.00
"USC00508884","2003-07-31",64.94,48.02,56.00,0.00,0.00
"USC00508884","2003-08-01",69.08,37.94,0.00,0.00,0.00
"USC00508884","2003-08-02",66.02,35.06,0.00,0.00,0.00
"USC00508884","2003-08-03",69.08,35.06,0.00,0.00,0.00
"USC00508884","2003-08-04",69.08,35.06,0.00,0.00,0.00
"USC00508884","2003-08-05",71.96,37.94,0.00,0.00,0.00
"USC00508884","2003-08-06",73.94,44.96,0.00,0.00,0.00
"USC00508884","2003-08-07",,,0.00,0.00,0.00
"USC00508884","2003-08-08",75.92,46.94,0.00,0.00,0.00
"USC00508884","2003-08-09",82.04,44.96,0.00,0.00,0.00
"USC00508884","2003-08-10",82.94,46.94,0.00,0.00,0.00
"USC00508884","2003-08-11",78.08,53.06,0.00,0.00,0.00
"USC00508884","2003-08-12",62.96,53.96,0.00,0.00,0.00
"USC00508884","2003-08-13",60.08,51.08,104.00,0.00,0.00
"USC00508884","2003-08-14",,,43.00,,
"USC00508884","2003-08-15",62.06,48.92,13.00,0.00,
"USC00508884","2003-08-16",60.98,48.92,64.00,0.00,
"USC00508884","2003-08-17",57.92,48.92,109.00,0.00,0.00
"USC00508884","2003-08-18",60.08,44.96,53.00,0.00,0.00
"USC00508884","2003-08-19",62.06,41.00,5.00,0.00,0.00
"USC00508884","2003-08-20",64.04,48.02,3.00,0.00,0.00
"USC00508884","2003-08-21",64.94,44.06,193.00,0.00,0.00
"USC00508884","2003-08-22",64.94,39.92,0.00,0.00,0.00
"USC00508884","2003-08-23",66.92,37.04,0.00,0.00,0.00
"USC00508884","2003-08-24",64.94,35.96,0.00,0.00,0.00
"USC00508884","2003-08-25",64.94,35.96,97.00,0.00,0.00
"USC00508884","2003-08-26",64.94,35.96,48.00,0.00,0.00
"USC00508884","2003-08-27",57.02,46.04,18.00,0.00,0.00
"USC00508884","2003-08-28",62.96,44.96,20.00,0.00,0.00
"USC00508884","2003-08-29",,,,0.00,0.00
"USC00508884","2003-08-30",62.06,44.96,,0.00,0.00
"USC00508884","2003-08-31",62.96,44.96,28.00,0.00,0.00
"USC00508884","2003-09-01",55.94,46.04,13.00,0.00,0.00
"USC00508884","2003-09-02",62.06,42.98,0.00,0.00,0.00
"USC00508884","2003-09-03",64.94,42.98,0.00,0.00,0.00
"USC00508884","2003-09-04",57.92,44.06,3.00,0.00,0.00
"USC00508884","2003-09-05",60.08,41.00,0.00,0.00,0.00
"USC00508884","2003-09-06",62.06,33.98,0.00,0.00,0.00
"USC00508884","2003-09-07",64.94,32.00,0.00,0.00,0.00
"USC00508884","2003-09-08",64.94,30.92,0.00,0.00,0.00
"USC00508884","2003-09-09",62.96,35.06,0.00,0.00,0.00
"USC00508884","2003-09-10",57.02,33.08,0.00,0.00,0.00
"USC00508884","2003-09-11",62.96,33.08,0.00,0.00,0.00
"USC00508884","2003-09-12",64.04,35.06,0.00,0.00,0.00
"USC00508884","2003-09-13",64.04,35.06,15.00,0.00,0.00
"USC00508884","2003-09-14",64.04,24.98,0.00,0.00,0.00
"USC00508884","2003-09-15",64.04,21.92,0.00,0.00,0.00
"USC00508884","2003-09-16",55.94,21.92,0.00,0.00,0.00
"USC00508884","2003-09-17",55.94,21.02,0.00,0.00,0.00
"USC00508884","2003-09-18",57.02,21.02,0.00,0.00,0.00
"USC00508884","2003-09-19",57.02,21.02,0.00,0.00,0.00
"USC00508884","2003-09-20",51.08,19.94,0.00,0.00,0.00
"USC00508884","2003-09-21",44.06,24.98,0.00,0.00,0.00
"USC00508884","2003-09-22",48.92,24.98,0.00,0.00,0.00
"USC00508884","2003-09-23",48.92,17.96,0.00,0.00,0.00
"USC00508884","2003-09-24",51.98,19.04,0.00,0.00,0.00
"USC00508884","2003-09-25",42.98,19.94,127.00,0.00,0.00
"USC00508884","2003-09-26",44.06,33.98,51.00,0.00,0.00
"USC00508884","2003-09-27",53.06,28.94,0.00,0.00,0.00
"USC00508884","2003-09-28",,,,0.00,0.00
"USC00508884","2003-09-29",57.92,28.94,,0.00,0.00
"USC00508884","2003-09-30",51.98,46.04,107.00,0.00,0.00
"USC00508884","2003-10-01",55.94,48.02,61.00,0.00,0.00
"USC00508884","2003-10-02",55.94,41.00,0.00,0.00,0.00
"USC00508884","2003-10-03",48.92,42.98,241.00,0.00,0.00
"USC00508884","2003-10-04",48.02,39.02,94.00,0.00,0.00
"USC00508884","2003-10-05",55.04,37.04,0.00,0.00,0.00
"USC00508884","2003-10-06",48.02,37.04,0.00,0.00,0.00
"USC00508884","2003-10-07",48.92,37.94,0.00,0.00,0.00
"USC00508884","2003-10-08",46.94,28.04,13.00,0.00,0.00
"USC00508884","2003-10-09",50.00,28.94,18.00,0.00,0.00
"USC00508884","2003-10-10",48.92,33.98,15.00,0.00,0.00
"USC00508884","2003-10-11",46.94,26.96,0.00,0.00,0.00
"USC00508884","2003-10-12",46.94,19.94,0.00,0.00,0.00
"USC00508884","2003-10-13",42.08,19.94,0.00,0.00,0.00
"USC00508884","2003-10-14",37.94,21.02,0.00,0.00,0.00
"USC00508884","2003-10-15",39.92,24.08,0.00,0.00,0.00
"USC00508884","2003-10-16",46.94,17.06,0.00,0.00,0.00
"USC00508884","2003-10-17",48.02,17.06,0.00,0.00,0.00
"USC00508884","2003-10-18",42.08,17.06,0.00,0.00,0.00
"USC00508884","2003-10-19",35.06,21.02,0.00,0.00,0.00
"USC00508884","2003-10-20",35.96,28.94,20.00,0.00,0.00
"USC00508884","2003-10-21",39.92,26.96,0.00,0.00,0.00
"USC00508884","2003-10-22",35.96,19.04,0.00,0.00,0.00
"USC00508884","2003-10-23",35.06,19.94,0.00,0.00,0.00
"USC00508884","2003-10-24",39.92,19.94,109.00,0.00,0.00
"USC00508884","2003-10-25",41.00,19.94,76.00,0.00,0.00
"USC00508884","2003-10-26",37.04,19.94,221.00,0.00,0.00
"USC00508884","2003-10-27",46.94,28.94,15.00,0.00,0.00
"USC00508884","2003-10-28",37.04,24.98,0.00,0.00,0.00
"USC00508884","2003-10-29",35.06,15.98,0.00,0.00,0.00
"USC00508884","2003-10-30",28.94,17.06,0.00,0.00,0.00
"USC00508884","2003-10-31",33.08,28.94,0.00,0.00,0.00
"USC00508884","2003-11-01",35.06,26.06,0.00,0.00,0.00
"USC00508884","2003-11-02",32.00,26.96,71.00,0.00,0.00
"USC00508884","2003-11-03",37.04,30.92,3.00,0.00,0.00
"USC00508884","2003-11-04",33.98,30.02,0.00,0.00,0.00
"USC00508884","2003-11-05",35.06,30.02,0.00,0.00,0.00
"USC00508884","2003-11-06",37.04,30.92,38.00,0.00,0.00
"USC00508884","2003-11-07",37.94,33.98,33.00,0.00,0.00
"USC00508884","2003-11-08",42.08,33.98,58.00,0.00,0.00
"USC00508884","2003-11-09",44.06,26.96,10.00,0.00,0.00
"USC00508884","2003-11-10",39.02,26.06,8.00,13.00,
"USC00508884","2003-11-11",30.02,19.04,5.00,10.00,
"USC00508884","2003-11-12",28.04,21.02,20.00,25.00,
"USC00508884","2003-11-13",28.04,17.96,5.00,28.00,
"USC00508884","2003-11-14",19.94,-2.02,0.00,0.00,
"USC00508884","2003-11-15",12.92,-14.08,0.00,0.00,
"USC00508884","2003-11-16",3.02,-18.94,0.00,0.00,
"USC00508884","2003-11-17",5.00,-22.00,0.00,0.00,
"USC00508884","2003-11-18",12.02,-11.02,0.00,0.00,
"USC00508884","2003-11-19",3.02,-14.08,0.00,0.00,
"USC00508884","2003-11-20",8.96,-13.00,0.00,0.00,
"USC00508884","2003-11-21",19.94,6.08,124.00,102.00,
"USC00508884","2003-11-22",26.06,6.08,211.00,216.00,
"USC00508884","2003-11-23",24.98,-0.94,0.00,0.00,
"USC00508884","2003-11-24",15.98,1.94,71.00,71.00,
"USC00508884","2003-11-25",15.08,6.98,0.00,0.00,
"USC00508884","2003-11-26",14.00,-16.06,0.00,0.00,
"USC00508884","2003-11-27",12.02,-25.96,0.00,0.00,
"USC00508884","2003-11-28",-2.02,-25.96,107.00,241.00,
"USC00508884","2003-11-29",3.92,-16.06,3.00,13.00,
"USC00508884","2003-11-30",3.92,-20.92,18.00,36.00,
"USC00508884","2003-12-01",10.94,-2.92,30.00,86.00,
"USC00508884","2003-12-02",6.08,-34.06,0.00,0.00,
"USC00508884","2003-12-03",-4.00,-34.96,0.00,0.00,
"USC00508884","2003-12-04",8.06,-4.00,0.00,0.00,
"USC00508884","2003-12-05",-0.94,-16.06,0.00,0.00,
"USC00508884","2003-12-06",-7.96,-22.00,0.00,0.00,
"USC00508884","2003-12-07",6.08,-22.00,0.00,0.00,
"USC00508884","2003-12-08",15.98,6.08,38.00,117.00,
"USC00508884","2003-12-09",28.04,15.08,15.00,18.00,
"USC00508884","2003-12-10",30.02,15.98,0.00,0.00,
"USC00508884","2003-12-11",26.06,15.08,0.00,0.00,
"USC00508884","2003-12-12",26.06,-0.04,0.00,0.00,
"USC00508884","2003-12-13",1.04,-9.04,0.00,0.00,
"USC00508884","2003-12-14",10.04,-7.06,0.00,0.00,
"USC00508884","2003-12-15",10.94,1.04,0.00,0.00,
"USC00508884","2003-12-16",15.08,-5.08,0.00,0.00,
"USC00508884","2003-12-17",1.94,-11.02,0.00,0.00,
"USC00508884","2003-12-18",17.06,1.94,56.00,81.00,
"USC00508884","2003-12-19",10.04,-11.02,0.00,0.00,
"USC00508884","2003-12-20",23.00,-0.04,38.00,61.00,
"USC00508884","2003-12-21",14.00,-0.94,66.00,170.00,
"USC00508884","2003-12-22",24.08,5.00,0.00,0.00,
"USC00508884","2003-12-23",19.04,5.00,8.00,33.00,
"USC00508884","2003-12-24",12.02,-11.02,10.00,36.00,
"USC00508884","2003-12-25",1.04,-16.96,0.00,0.00,
"USC00508884","2003-12-26",-5.98,-18.04,0.00,0.00,
"USC00508884","2003-12-27",-16.06,-29.02,0.00,0.00,
"USC00508884","2003-12-28",-7.96,-29.02,0.00,0.00,
"USC00508884","2003-12-29",21.02,-7.96,51.00,71.00,
"USC00508884","2003-12-30",24.08,15.98,0.00,0.00,
"USC00508884","2003-12-31",24.98,8.96,0.00,0.00,
"USC00508884","2004-01-01",24.98,-14.98,0.00,0.00,
"USC00508884","2004-01-02",-9.94,-22.00,0.00,0.00,
"USC00508884","2004-01-03",24.08,-16.96,0.00,0.00,
"USC00508884","2004-01-04",-2.92,-16.96,0.00,0.00,
"USC00508884","2004-01-05",-9.94,-18.04,0.00,0.00,
"USC00508884","2004-01-06",21.92,-23.98,0.00,0.00,
"USC00508884","2004-01-07",19.94,-14.98,0.00,0.00,
"USC00508884","2004-01-08",-11.02,-32.08,0.00,0.00,
"USC00508884","2004-01-09",3.92,-29.92,0.00,0.00,
"USC00508884","2004-01-10",24.98,-0.04,53.00,109.00,
"USC00508884","2004-01-11",26.96,5.00,0.00,0.00,
"USC00508884","2004-01-12",15.98,-0.04,0.00,0.00,
"USC00508884","2004-01-13",-0.04,-16.06,0.00,0.00,
"USC00508884","2004-01-14",15.98,-16.96,0.00,0.00,
"USC00508884","2004-01-15",10.94,-16.96,0.00,0.00,
"USC00508884","2004-01-16",10.94,-34.96,0.00,0.00,
"USC00508884","2004-01-17",-18.94,-38.92,0.00,0.00,
"USC00508884","2004-01-18",-23.98,-43.96,0.00,0.00,
"USC00508884","2004-01-19",-25.06,-45.04,0.00,0.00,
"USC00508884","2004-01-20",14.00,-38.92,13.00,25.00,
"USC00508884","2004-01-21",21.02,1.04,0.00,0.00,
"USC00508884","2004-01-22",26.06,12.02,0.00,0.00,
"USC00508884","2004-01-23",30.02,17.96,0.00,0.00,
"USC00508884","2004-01-24",21.92,-7.06,13.00,20.00,
"USC00508884","2004-01-25",1.94,-23.08,0.00,0.00,
"USC00508884","2004-01-26",-4.00,-23.98,0.00,0.00,
"USC00508884","2004-01-27",6.08,-23.98,0.00,0.00,
"USC00508884","2004-01-28",-0.94,-14.08,0.00,0.00,
"USC00508884","2004-01-29",-5.08,-14.98,0.00,0.00,
"USC00508884","2004-01-30",-0.94,-34.06,0.00,0.00,
"USC00508884","2004-01-31",-2.02,-34.96,0.00,0.00,
"USC00508884","2004-02-01",12.02,-34.96,36.00,89.00,
"USC00508884","2004-02-02",28.04,6.08,41.00,114.00,
"USC00508884","2004-02-03",24.98,3.92,0.00,0.00,
"USC00508884","2004-02-04",17.96,6.08,0.00,0.00,
"USC00508884","2004-02-05",21.02,6.08,25.00,48.00,
"USC00508884","2004-02-06",24.98,10.04,43.00,64.00,
"USC00508884","2004-02-07",19.04,10.04,53.00,89.00,
"USC00508884","2004-02-08",26.06,19.04,,18.00,
"USC00508884","2004-02-09",33.08,8.06,0.00,0.00,
"USC00508884","2004-02-10",33.08,3.02,0.00,0.00,
"USC00508884","2004-02-11",44.06,17.96,0.00,0.00,
"USC00508884","2004-02-12",30.92,-0.04,0.00,0.00,
"USC00508884","2004-02-13",19.04,-0.04,0.00,0.00,
"USC00508884","2004-02-14",24.08,12.92,0.00,0.00,
"USC00508884","2004-02-15",39.02,21.92,0.00,0.00,
"USC00508884","2004-02-16",39.02,-5.98,0.00,0.00,
"USC00508884","2004-02-17",19.94,-13.00,0.00,0.00,
"USC00508884","2004-02-18",10.04,-18.04,0.00,0.00,
"USC00508884","2004-02-19",15.98,-18.04,0.00,0.00,
"USC00508884","2004-02-20",24.98,6.08,0.00,0.00,
"USC00508884","2004-02-21",28.94,12.02,0.00,0.00,
"USC00508884","2004-02-22",39.02,21.02,0.00,0.00,
"USC00508884","2004-02-23",39.92,17.06,0.00,0.00,
"USC00508884","2004-02-24",35.06,14.00,0.00,0.00,
"USC00508884","2004-02-25",35.96,3.92,0.00,0.00,
"USC00508884","2004-02-26",32.00,3.02,0.00,0.00,
"USC00508884","2004-02-27",30.92,17.96,0.00,0.00,
"USC00508884","2004-02-28",30.02,19.94,38.00,51.00,
"USC00508884","2004-02-29",35.06,15.08,0.00,0.00,
"USC00508884","2004-03-01",33.98,19.04,0.00,0.00,
"USC00508884","2004-03-02",32.00,28.04,0.00,0.00,
"USC00508884","2004-03-03",33.08,21.02,0.00,0.00,
"USC00508884","2004-03-04",35.06,21.92,0.00,0.00,
"USC00508884","2004-03-05",33.98,17.96,0.00,0.00,
"USC00508884","2004-03-06",24.98,-0.94,0.00,0.00,
"USC00508884","2004-03-07",26.06,-7.06,0.00,0.00,
"USC00508884","2004-03-08",26.06,-5.98,0.00,0.00,
"USC00508884","2004-03-09",26.06,-7.06,0.00,0.00,
"USC00508884","2004-03-10",26.06,-0.04,0.00,0.00,
"USC00508884","2004-03-11",48.02,-0.04,0.00,0.00,
"USC00508884","2004-03-12",39.92,-0.04,0.00,0.00,
"USC00508884","2004-03-13",35.96,19.04,0.00,0.00,
"USC00508884","2004-03-14",41.00,21.92,0.00,0.00,
"USC00508884","2004-03-15",26.06,21.92,0.00,0.00,
"USC00508884","2004-03-16",35.96,24.08,0.00,0.00,
"USC00508884","2004-03-17",33.08,1.94,0.00,0.00,
"USC00508884","2004-03-18",30.92,-9.04,0.00,0.00,
"USC00508884","2004-03-19",28.94,6.98,0.00,0.00,
"USC00508884","2004-03-20",24.98,-16.06,0.00,0.00,
"USC00508884","2004-03-21",28.94,-16.06,0.00,0.00,
"USC00508884","2004-03-22",41.00,6.98,0.00,0.00,
"USC00508884","2004-03-23",46.94,6.98,0.00,0.00,
"USC00508884","2004-03-24",42.08,17.96,0.00,0.00,
"USC00508884","2004-03-25",39.02,14.00,0.00,0.00,
"USC00508884","2004-03-26",30.92,3.02,0.00,0.00,
"USC00508884","2004-03-27",30.92,6.98,0.00,0.00,
"USC00508884","2004-03-28",28.94,6.08,0.00,0.00,
"USC00508884","2004-03-29",35.06,8.96,0.00,0.00,
"USC00508884","2004-03-30",24.98,3.92,0.00,0.00,
"USC00508884","2004-03-31",24.98,-13.00,0.00,0.00,
"USC00508884","2004-04-01",17.96,-18.04,0.00,0.00,533.00
"USC00508884","2004-04-02",26.96,-5.08,0.00,0.00,
"USC00508884","2004-04-03",33.08,14.00,38.00,10.00,508.00
"USC00508884","2004-04-04",42.08,14.00,23.00,13.00,508.00
"USC00508884","2004-04-05",42.08,26.96,0.00,0.00,483.00
"USC00508884","2004-04-06",53.06,26.06,0.00,0.00,457.00
"USC00508884","2004-04-07",51.08,26.06,0.00,0.00,406.00
"USC00508884","2004-04-08",48.02,24.98,0.00,0.00,356.00
"USC00508884","2004-04-09",48.92,26.06,0.00,0.00,330.00
"USC00508884","2004-04-10",50.00,23.00,0.00,0.00,279.00
"USC00508884","2004-04-11",48.02,21.02,0.00,0.00,254.00
"USC00508884","2004-04-12",48.92,17.96,0.00,0.00,229.00
"USC00508884","2004-04-13",51.08,24.08,0.00,0.00,203.00
"USC00508884","2004-04-14",50.00,24.08,0.00,0.00,203.00
"USC00508884","2004-04-15",51.08,23.00,0.00,0.00,203.00
"USC00508884","2004-04-16",51.08,24.98,10.00,0.00,178.00
"USC00508884","2004-04-17",37.94,30.92,86.00,0.00,178.00
"USC00508884","2004-04-18",44.96,24.08,0.00,0.00,152.00
"USC00508884","2004-04-19",48.92,28.04,0.00,0.00,102.00
"USC00508884","2004-04-20",48.02,30.02,0.00,0.00,76.00
"USC00508884","2004-04-21",48.02,26.96,0.00,0.00,51.00
"USC00508884","2004-04-22",48.92,30.02,0.00,0.00,0.00
"USC00508884","2004-04-23",50.00,28.94,0.00,0.00,0.00
"USC00508884","2004-04-24",51.08,28.04,0.00,0.00,0.00
"USC00508884","2004-04-25",51.98,28.94,0.00,0.00,0.00
"USC00508884","2004-04-26",53.96,30.02,0.00,0.00,0.00
"USC00508884","2004-04-27",46.04,35.06,38.00,0.00,0.00
"USC00508884","2004-04-28",42.08,32.00,0.00,0.00,0.00
"USC00508884","2004-04-29",44.96,35.06,124.00,0.00,0.00
"USC00508884","2004-04-30",44.96,30.92,28.00,0.00,0.00
"USC00508884","2004-05-01",64.04,37.94,0.00,0.00,0.00
"USC00508884","2004-05-02",64.04,42.08,0.00,0.00,0.00
"USC00508884","2004-05-03",51.08,28.04,0.00,0.00,0.00
"USC00508884","2004-05-04",68.00,28.94,0.00,0.00,0.00
"USC00508884","2004-05-05",75.02,30.02,0.00,0.00,0.00
"USC00508884","2004-05-06",69.08,30.02,0.00,0.00,0.00
"USC00508884","2004-05-07",69.98,42.98,0.00,0.00,0.00
"USC00508884","2004-05-08",68.00,37.04,0.00,0.00,0.00
"USC00508884","2004-05-09",59.00,37.04,0.00,0.00,0.00
"USC00508884","2004-05-10",57.02,37.94,0.00,0.00,0.00
"USC00508884","2004-05-11",55.94,37.94,0.00,0.00,0.00
"USC00508884","2004-05-12",55.04,39.92,0.00,0.00,0.00
"USC00508884","2004-05-13",62.96,35.06,0.00,0.00,0.00
"USC00508884","2004-05-14",64.94,37.94,0.00,0.00,0.00
"USC00508884","2004-05-15",66.92,35.96,0.00,0.00,0.00
"USC00508884","2004-05-16",60.98,41.00,0.00,0.00,0.00
"USC00508884","2004-05-17",60.98,41.00,97.00,0.00,0.00
"USC00508884","2004-05-18",55.94,42.98,0.00,0.00,0.00
"USC00508884","2004-05-19",53.06,44.06,0.00,0.00,0.00
"USC00508884","2004-05-20",62.06,33.08,0.00,0.00,0.00
"USC00508884","2004-05-21",71.06,33.98,0.00,0.00,0.00
"USC00508884","2004-05-22",71.06,42.98,0.00,0.00,0.00
"USC00508884","2004-05-23",68.00,48.02,0.00,0.00,0.00
"USC00508884","2004-05-24",55.04,46.04,147.00,0.00,0.00
"USC00508884","2004-05-25",,,0.00,0.00,0.00
"USC00508884","2004-05-26",57.92,46.04,0.00,0.00,0.00
"USC00508884","2004-05-27",64.94,46.94,5.00,0.00,0.00
"USC00508884","2004-05-28",59.00,42.98,0.00,0.00,0.00
"USC00508884","2004-05-29",60.08,42.08,51.00,0.00,0.00
"USC00508884","2004-05-30",59.00,46.94,0.00,0.00,0.00
"USC00508884","2004-05-31",66.92,39.92,0.00,0.00,0.00
"USC00508884","2004-06-01",,,0.00,0.00,0.00
"USC00508884","2004-06-02",57.02,48.02,0.00,0.00,0.00
"USC00508884","2004-06-03",60.98,35.96,0.00,0.00,0.00
"USC00508884","2004-06-04",69.08,35.96,0.00,0.00,0.00
"USC00508884","2004-06-05",75.92,48.02,0.00,0.00,0.00
"USC00508884","2004-06-06",75.92,48.02,0.00,0.00,0.00
"USC00508884","2004-06-07",75.02,48.02,0.00,0.00,0.00
"USC00508884","2004-06-08",71.06,44.96,0.00,0.00,0.00
"USC00508884","2004-06-09",62.96,44.96,0.00,0.00,0.00
"USC00508884","2004-06-10",62.96,46.04,0.00,0.00,0.00
"USC00508884","2004-06-11",64.04,46.04,0.00,0.00,0.00
"USC00508884","2004-06-12",55.94,37.94,0.00,0.00,0.00
"USC00508884","2004-06-13",73.04,39.92,41.00,0.00,0.00
"USC00508884","2004-06-14",71.06,46.04,0.00,0.00,0.00
"USC00508884","2004-06-15",,,,0.00,0.00
"USC00508884","2004-06-16",73.04,48.02,,0.00,0.00
"USC00508884","2004-06-17",55.94,50.00,249.00,0.00,0.00
"USC00508884","2004-06-18",64.94,51.08,0.00,0.00,0.00
"USC00508884","2004-06-19",80.06,51.98,0.00,0.00,0.00
"USC00508884","2004-06-20",80.06,48.92,0.00,0.00,0.00
"USC00508884","2004-06-21",80.96,51.08,0.00,0.00,0.00
"USC00508884","2004-06-22",80.96,51.08,0.00,0.00,0.00
"USC00508884","2004-06-23",75.02,51.98,0.00,0.00,0.00
"USC00508884","2004-06-24",73.94,50.00,0.00,0.00,0.00
"USC00508884","2004-06-25",77.00,55.04,0.00,0.00,0.00
"USC00508884","2004-06-26",82.94,53.06,0.00,0.00,0.00
"USC00508884","2004-06-27",87.98,57.92,0.00,0.00,0.00
"USC00508884","2004-06-28",73.94,53.06,0.00,0.00,0.00
"USC00508884","2004-06-29",,,0.00,0.00,0.00
"USC00508884","2004-06-30",66.02,53.06,0.00,0.00,0.00
"USC00508884","2004-07-01",62.06,53.96,0.00,0.00,0.00
"USC00508884","2004-07-02",68.00,53.96,0.00,0.00,0.00
"USC00508884","2004-07-03",69.08,53.96,51.00,0.00,0.00
"USC00508884","2004-07-04",62.06,53.06,117.00,0.00,0.00
"USC00508884","2004-07-05",69.08,53.06,0.00,0.00,0.00
"USC00508884","2004-07-06",,,0.00,0.00,0.00
"USC00508884","2004-07-07",78.98,50.00,0.00,0.00,0.00
"USC00508884","2004-07-08",82.04,50.00,0.00,0.00,0.00
"USC00508884","2004-07-09",77.00,51.98,0.00,0.00,0.00
"USC00508884","2004-07-10",,,0.00,0.00,0.00
"USC00508884","2004-07-11",80.96,44.06,0.00,0.00,0.00
"USC00508884","2004-07-12",80.96,50.00,0.00,0.00,0.00
"USC00508884","2004-07-13",82.94,51.08,0.00,0.00,0.00
"USC00508884","2004-07-14",80.06,55.04,0.00,0.00,0.00
"USC00508884","2004-07-15",78.08,55.94,0.00,0.00,0.00
"USC00508884","2004-07-16",75.92,51.98,0.00,0.00,0.00
"USC00508884","2004-07-17",75.02,53.06,0.00,0.00,0.00
"USC00508884","2004-07-18",69.98,53.96,0.00,0.00,0.00
"USC00508884","2004-07-19",69.98,53.06,0.00,0.00,0.00
"USC00508884","2004-07-20",78.08,53.06,0.00,0.00,0.00
"USC00508884","2004-07-21",66.92,53.96,41.00,0.00,0.00
"USC00508884","2004-07-22",73.04,50.00,0.00,0.00,0.00
"USC00508884","2004-07-23",73.04,50.00,0.00,0.00,0.00
"USC00508884","2004-07-24",73.94,50.00,0.00,0.00,0.00
"USC00508884","2004-07-25",71.06,51.98,0.00,0.00,0.00
"USC00508884","2004-07-26",73.04,50.00,0.00,0.00,0.00
"USC00508884","2004-07-27",62.96,50.00,41.00,0.00,0.00
"USC00508884","2004-07-28",64.04,51.08,56.00,0.00,0.00
"USC00508884","2004-07-29",,,0.00,0.00,0.00
"USC00508884","2004-07-30",,,0.00,0.00,0.00
"USC00508884","2004-07-31",,,0.00,0.00,0.00
"USC00508884","2004-08-01",71.06,44.96,0.00,0.00,0.00
"USC00508884","2004-08-02",68.00,44.06,0.00,0.00,0.00
"USC00508884","2004-08-03",78.08,39.92,0.00,0.00,0.00
"USC00508884","2004-08-04",78.08,39.92,0.00,0.00,0.00
"USC00508884","2004-08-05",77.00,51.08,0.00,0.00,0.00
"USC00508884","2004-08-06",78.98,44.96,0.00,0.00,0.00
"USC00508884","2004-08-07",82.94,44.96,0.00,0.00,0.00
"USC00508884","2004-08-08",82.94,48.02,0.00,0.00,0.00
"USC00508884","2004-08-09",75.92,46.04,0.00,0.00,0.00
"USC00508884","2004-08-10",77.00,46.94,0.00,0.00,0.00
"USC00508884","2004-08-11",84.02,46.94,0.00,0.00,0.00
"USC00508884","2004-08-12",71.96,55.94,0.00,0.00,0.00
"USC00508884","2004-08-13",73.04,46.94,0.00,0.00,0.00
"USC00508884","2004-08-14",71.96,44.06,0.00,0.00,0.00
"USC00508884","2004-08-15",75.92,44.06,0.00,0.00,0.00
"USC00508884","2004-08-16",71.06,46.04,0.00,0.00,0.00
"USC00508884","2004-08-17",82.94,46.04,0.00,0.00,0.00
"USC00508884","2004-08-18",82.94,50.00,0.00,0.00,0.00
"USC00508884","2004-08-19",73.04,46.94,0.00,0.00,0.00